User: anonymous   Login
Location: Unspecified
(0.0000°N, 0.0000°E)
Time: 09:16:13
(UTC+00:00)
Language:

UNISAT 5 - Orbit

View from above orbital plane
View from above orbital plane
View from above satellite
View from above satellite

Ground track
Ground track

The orbit data is extracted from the following two-line orbital elements,

1 39421U 13066F   17268.89110835 +.00000252 +00000-0 +33602-4 0  9991
2 39421 097.6330 322.2073 0029684 264.8406 094.9423 14.87422869207727
Epoch (UTC): 25 September 2017 21:23:11
Eccentricity: 0.0029684
inclination: 97.6330°
perigee height: 585 km
apogee height: 627 km
right ascension of ascending node: 322.2073°
argument of perigee: 264.8406°
revolutions per day: 14.87422869
mean anomaly at epoch: 94.9423°
orbit number at epoch: 20772

The dashed part of the orbit path shows where the satellite is in the earth's shadow,  

DLR